STAL23 YAMB-YSNW

Flight info

Callsign STAL23
Flight time 1h 24m
Altitude 39000
Route TATEN DCT APAGI/N0427F380 H91 IGDAM/N0424F390 H652 TESAT/N0424F400 H65 WOL H20 NWA
Aircraft C17/H-SDE1E2FGHIJ5RTUWXY/LB1D1

Departure

Time 2026-05-08 06:54
Airport RAAF Base Amberley (YAMB)

Arrival

Time 2026-05-08 08:18
Airport Naval Air Station Nowra - HMAS Albatross (YSNW)
Time Latitude Longitude Altitude Speed Heading
2026-05-08 06:46 -27.62166 152.70160 94 ft 0 kts 159°
2026-05-08 06:52 -27.62167 152.70161 94 ft 1 kts 159°
2026-05-08 06:52 -27.62203 152.70215 96 ft 13 kts 86°
2026-05-08 06:53 -27.62197 152.70307 97 ft 11 kts 107°
2026-05-08 06:53 -27.62205 152.70392 99 ft 10 kts 83°
2026-05-08 06:53 -27.62194 152.70463 99 ft 9 kts 84°
2026-05-08 06:53 -27.62212 152.70541 102 ft 11 kts 140°
2026-05-08 06:54 -27.62341 152.70601 98 ft 50 kts 159°
2026-05-08 06:54 -27.62969 152.70867 101 ft 138 kts 162°
2026-05-08 06:54 -27.63966 152.71270 556 ft 170 kts 163°
2026-05-08 06:54 -27.65157 152.71811 1206 ft 199 kts 158°
2026-05-08 06:55 -27.66532 152.72475 1910 ft 231 kts 160°
2026-05-08 06:55 -27.67783 152.73072 3507 ft 160 kts 160°
2026-05-08 06:55 -27.68888 152.73594 4430 ft 198 kts 162°
2026-05-08 06:55 -27.70415 152.73605 4867 ft 243 kts 195°
2026-05-08 06:56 -27.71994 152.73065 5282 ft 228 kts 197°
2026-05-08 06:56 -27.73593 152.72700 5905 ft 241 kts 187°
2026-05-08 06:56 -27.75269 152.72613 6554 ft 240 kts 182°
2026-05-08 06:56 -27.76958 152.72593 7159 ft 245 kts 184°
2026-05-08 06:57 -27.78675 152.72517 7774 ft 247 kts 185°
2026-05-08 06:57 -27.80397 152.72429 8398 ft 250 kts 185°
2026-05-08 06:57 -27.82150 152.72346 9038 ft 254 kts 185°
2026-05-08 06:57 -27.83923 152.72266 9690 ft 256 kts 186°
2026-05-08 06:58 -27.85703 152.72185 10307 ft 258 kts 186°
2026-05-08 06:58 -27.87514 152.72100 10921 ft 263 kts 186°
2026-05-08 06:58 -27.89356 152.72017 11521 ft 265 kts 186°
2026-05-08 06:58 -27.91209 152.71931 12154 ft 268 kts 186°
2026-05-08 06:59 -27.93093 152.71843 12797 ft 276 kts 186°
2026-05-08 06:59 -27.95130 152.71744 13487 ft 312 kts 186°
2026-05-08 06:59 -27.97351 152.71641 14151 ft 322 kts 186°
2026-05-08 06:59 -27.99605 152.71545 14758 ft 327 kts 186°
2026-05-08 07:00 -28.01911 152.71437 15370 ft 334 kts 186°
2026-05-08 07:00 -28.04231 152.71330 15981 ft 334 kts 186°
2026-05-08 07:00 -28.06572 152.71222 16638 ft 340 kts 186°
2026-05-08 07:00 -28.08946 152.71112 17290 ft 341 kts 186°
2026-05-08 07:01 -28.11294 152.70877 17943 ft 338 kts 195°
2026-05-08 07:01 -28.13579 152.70231 18589 ft 338 kts 199°
2026-05-08 07:01 -28.15817 152.69524 19169 ft 340 kts 200°
2026-05-08 07:01 -28.18113 152.68798 19769 ft 346 kts 200°
2026-05-08 07:02 -28.20457 152.68078 20386 ft 351 kts 200°
2026-05-08 07:02 -28.22819 152.67357 21007 ft 353 kts 200°
2026-05-08 07:02 -28.25200 152.66623 21658 ft 358 kts 201°
2026-05-08 07:02 -28.27619 152.65869 22305 ft 364 kts 201°
2026-05-08 07:03 -28.30074 152.65111 22969 ft 367 kts 201°
2026-05-08 07:03 -28.32545 152.64352 23680 ft 371 kts 202°
2026-05-08 07:03 -28.35059 152.63573 24262 ft 376 kts 202°
2026-05-08 07:03 -28.37588 152.62790 24844 ft 378 kts 203°
2026-05-08 07:04 -28.40141 152.61998 25460 ft 383 kts 204°
2026-05-08 07:04 -28.42733 152.61193 26058 ft 389 kts 204°
2026-05-08 07:04 -28.45354 152.60384 26678 ft 391 kts 205°
2026-05-08 07:04 -28.47993 152.59568 27311 ft 396 kts 206°
2026-05-08 07:05 -28.50674 152.58729 27976 ft 403 kts 206°
2026-05-08 07:05 -28.53392 152.57887 28649 ft 405 kts 207°
2026-05-08 07:05 -28.56116 152.57047 29328 ft 409 kts 207°
2026-05-08 07:05 -28.58881 152.56183 30072 ft 416 kts 207°
2026-05-08 07:06 -28.61700 152.55302 30688 ft 421 kts 207°
2026-05-08 07:06 -28.64519 152.54434 31167 ft 412 kts 207°
2026-05-08 07:06 -28.67272 152.53591 31645 ft 415 kts 208°
2026-05-08 07:06 -28.70116 152.52674 32166 ft 433 kts 208°
2026-05-08 07:07 -28.73056 152.51750 32691 ft 444 kts 207°
2026-05-08 07:07 -28.76075 152.50827 33228 ft 450 kts 207°
2026-05-08 07:07 -28.79017 152.49949 33738 ft 423 kts 208°
2026-05-08 07:07 -28.81845 152.49058 34275 ft 422 kts 209°
2026-05-08 07:08 -28.84663 152.48142 34745 ft 418 kts 209°
2026-05-08 07:08 -28.87463 152.47269 35215 ft 417 kts 208°
2026-05-08 07:08 -28.90281 152.46400 35580 ft 423 kts 208°
2026-05-08 07:08 -28.93134 152.45504 35958 ft 427 kts 208°
2026-05-08 07:09 -28.96011 152.44601 36344 ft 429 kts 209°
2026-05-08 07:09 -28.98886 152.43704 36731 ft 429 kts 209°
2026-05-08 07:09 -29.01772 152.42799 37131 ft 432 kts 209°
2026-05-08 07:09 -29.04685 152.41881 37529 ft 437 kts 209°
2026-05-08 07:10 -29.07623 152.40960 37977 ft 439 kts 208°
2026-05-08 07:10 -29.10567 152.40044 38403 ft 438 kts 209°
2026-05-08 07:10 -29.13475 152.39130 38811 ft 440 kts 209°
2026-05-08 07:10 -29.16488 152.38171 39048 ft 449 kts 209°
2026-05-08 07:11 -29.22317 152.36392 39089 ft 404 kts 209°
2026-05-08 07:11 -29.27633 152.34655 39102 ft 401 kts 211°
2026-05-08 07:12 -29.33100 152.32949 39122 ft 409 kts 209°
2026-05-08 07:12 -29.38538 152.31240 39115 ft 403 kts 210°
2026-05-08 07:13 -29.43973 152.29508 39118 ft 408 kts 209°
2026-05-08 07:13 -29.49459 152.27785 39130 ft 407 kts 209°
2026-05-08 07:14 -29.54898 152.26055 39127 ft 407 kts 209°
2026-05-08 07:14 -29.60385 152.24315 39133 ft 411 kts 209°
2026-05-08 07:15 -29.65893 152.22573 39126 ft 409 kts 209°
2026-05-08 07:15 -29.71360 152.20832 39123 ft 407 kts 209°
2026-05-08 07:16 -29.76843 152.19085 39136 ft 410 kts 209°
2026-05-08 07:16 -29.82370 152.17329 39139 ft 413 kts 208°
2026-05-08 07:17 -29.87903 152.15563 39153 ft 412 kts 208°
2026-05-08 07:17 -29.93378 152.13819 39150 ft 411 kts 209°
2026-05-08 07:18 -29.98907 152.12041 39158 ft 415 kts 208°
2026-05-08 07:18 -30.04460 152.10279 39148 ft 412 kts 208°
2026-05-08 07:19 -30.09967 152.08505 39155 ft 411 kts 208°
2026-05-08 07:19 -30.15495 152.06735 39157 ft 413 kts 208°
2026-05-08 07:20 -30.21035 152.04957 39167 ft 413 kts 208°
2026-05-08 07:20 -30.26572 152.03177 39166 ft 412 kts 208°
2026-05-08 07:21 -30.32093 152.01399 39163 ft 412 kts 208°
2026-05-08 07:21 -30.37617 151.99618 39167 ft 413 kts 208°
2026-05-08 07:22 -30.42229 151.98135 39167 ft 413 kts 208°
2026-05-08 07:22 -30.47743 151.96352 39196 ft 411 kts 208°
2026-05-08 07:23 -30.53267 151.94565 39179 ft 412 kts 208°
2026-05-08 07:23 -30.58778 151.92785 39179 ft 410 kts 208°
2026-05-08 07:24 -30.64284 151.90993 39187 ft 412 kts 208°
2026-05-08 07:24 -30.69819 151.89207 39186 ft 412 kts 208°
2026-05-08 07:25 -30.75318 151.87414 39180 ft 410 kts 208°
2026-05-08 07:26 -30.83608 151.84722 39183 ft 413 kts 207°
2026-05-08 07:26 -30.89081 151.82937 39178 ft 410 kts 208°
2026-05-08 07:27 -30.94587 151.81139 39202 ft 412 kts 207°
2026-05-08 07:27 -31.00108 151.79340 39198 ft 411 kts 207°
2026-05-08 07:28 -31.05592 151.77545 39196 ft 409 kts 207°
2026-05-08 07:28 -31.11103 151.75739 39191 ft 412 kts 207°
2026-05-08 07:29 -31.16616 151.73936 39197 ft 411 kts 207°
2026-05-08 07:29 -31.22095 151.72138 39189 ft 406 kts 207°
2026-05-08 07:30 -31.27531 151.70348 39188 ft 407 kts 207°
2026-05-08 07:30 -31.33016 151.68545 39198 ft 410 kts 207°
2026-05-08 07:31 -31.38489 151.66745 39202 ft 407 kts 207°
2026-05-08 07:31 -31.43941 151.64945 39187 ft 405 kts 206°
2026-05-08 07:32 -31.49339 151.63165 39177 ft 403 kts 207°
2026-05-08 07:32 -31.54769 151.61365 39178 ft 408 kts 206°
2026-05-08 07:33 -31.60236 151.59562 39183 ft 407 kts 206°
2026-05-08 07:33 -31.65657 151.57764 39172 ft 403 kts 206°
2026-05-08 07:34 -31.71037 151.55979 39171 ft 402 kts 206°
2026-05-08 07:34 -31.76437 151.54183 39185 ft 405 kts 206°
2026-05-08 07:35 -31.81857 151.52386 39176 ft 403 kts 206°
2026-05-08 07:35 -31.87246 151.50589 39177 ft 400 kts 205°
2026-05-08 07:36 -31.92567 151.48819 39170 ft 396 kts 206°
2026-05-08 07:36 -31.97900 151.47030 39169 ft 401 kts 205°
2026-05-08 07:37 -32.03265 151.45246 39175 ft 399 kts 205°
2026-05-08 07:37 -32.08584 151.43462 39174 ft 398 kts 205°
2026-05-08 07:38 -32.13896 151.41681 39170 ft 402 kts 205°
2026-05-08 07:38 -32.19270 151.39884 39169 ft 400 kts 205°
2026-05-08 07:39 -32.24597 151.38091 39155 ft 399 kts 205°
2026-05-08 07:39 -32.29090 151.36582 39173 ft 401 kts 205°
2026-05-08 07:40 -32.29260 151.36525 39173 ft 401 kts 205°
2026-05-08 07:40 -32.33868 151.34976 39148 ft 400 kts 204°
2026-05-08 07:41 -32.39191 151.33181 39144 ft 397 kts 205°
2026-05-08 07:41 -32.44556 151.31368 39151 ft 404 kts 204°
2026-05-08 07:42 -32.49947 151.29554 39147 ft 401 kts 204°
2026-05-08 07:42 -32.55300 151.27741 39143 ft 399 kts 204°
2026-05-08 07:43 -32.60658 151.25925 39142 ft 402 kts 204°
2026-05-08 07:43 -32.66037 151.24105 39143 ft 401 kts 204°
2026-05-08 07:44 -32.71386 151.22287 39135 ft 400 kts 205°
2026-05-08 07:44 -32.76755 151.20462 39147 ft 402 kts 204°
2026-05-08 07:45 -32.82142 151.18629 38841 ft 408 kts 204°
2026-05-08 07:45 -32.84825 151.17713 38269 ft 405 kts 203°
2026-05-08 07:45 -32.87470 151.16820 37701 ft 397 kts 203°
2026-05-08 07:45 -32.90131 151.15916 37128 ft 388 kts 203°
2026-05-08 07:46 -32.92698 151.15035 36566 ft 380 kts 203°
2026-05-08 07:46 -32.95188 151.14183 36062 ft 374 kts 202°
2026-05-08 07:46 -32.97663 151.13339 35548 ft 367 kts 202°
2026-05-08 07:46 -33.00123 151.12498 35029 ft 360 kts 201°
2026-05-08 07:47 -33.02520 151.11677 34529 ft 356 kts 201°
2026-05-08 07:47 -33.04893 151.10863 34024 ft 354 kts 201°
2026-05-08 07:47 -33.07252 151.10055 33469 ft 352 kts 201°
2026-05-08 07:47 -33.09588 151.09257 32916 ft 347 kts 201°
2026-05-08 07:48 -33.11889 151.08469 32369 ft 341 kts 201°
2026-05-08 07:48 -33.14121 151.07704 31834 ft 335 kts 201°
2026-05-08 07:48 -33.16339 151.06941 31310 ft 329 kts 201°
2026-05-08 07:48 -33.18514 151.06195 30809 ft 323 kts 201°
2026-05-08 07:49 -33.20654 151.05462 30312 ft 316 kts 201°
2026-05-08 07:49 -33.22763 151.04796 29729 ft 313 kts 196°
2026-05-08 07:49 -33.24950 151.04665 29204 ft 317 kts 181°
2026-05-08 07:50 -33.29289 151.05486 29157 ft 326 kts 179°
2026-05-08 07:50 -33.33836 151.06364 29149 ft 330 kts 178°
2026-05-08 07:51 -33.38363 151.07254 29140 ft 332 kts 179°
2026-05-08 07:51 -33.42931 151.08143 29143 ft 332 kts 178°
2026-05-08 07:52 -33.47480 151.09032 29030 ft 334 kts 178°
2026-05-08 07:52 -33.49799 151.09482 28426 ft 339 kts 178°
2026-05-08 07:52 -33.52116 151.09942 27823 ft 334 kts 178°
2026-05-08 07:52 -33.54369 151.10388 27238 ft 328 kts 178°
2026-05-08 07:53 -33.56609 151.10824 26642 ft 322 kts 178°
2026-05-08 07:53 -33.58804 151.11253 26081 ft 317 kts 178°
2026-05-08 07:53 -33.60936 151.11671 25535 ft 312 kts 178°
2026-05-08 07:53 -33.63072 151.12091 24977 ft 308 kts 178°
2026-05-08 07:54 -33.65173 151.12503 24469 ft 303 kts 177°
2026-05-08 07:54 -33.67223 151.12906 23958 ft 298 kts 176°
2026-05-08 07:54 -33.69265 151.13307 23388 ft 294 kts 176°
2026-05-08 07:54 -33.70366 151.13524 23051 ft 291 kts 176°
2026-05-08 07:55 -33.72279 151.13900 22470 ft 287 kts 176°
2026-05-08 07:55 -33.74052 151.14249 21936 ft 284 kts 176°
2026-05-08 07:55 -33.75995 151.14630 21356 ft 281 kts 176°
2026-05-08 07:55 -33.77919 151.15008 20785 ft 280 kts 176°
2026-05-08 07:56 -33.79834 151.15387 20252 ft 278 kts 176°
2026-05-08 07:56 -33.81700 151.15757 20044 ft 269 kts 176°
2026-05-08 07:56 -33.83592 151.16124 19437 ft 280 kts 176°
2026-05-08 07:56 -33.85523 151.16505 18854 ft 280 kts 175°
2026-05-08 07:57 -33.87444 151.16888 18256 ft 278 kts 175°
2026-05-08 07:57 -33.89349 151.17265 17606 ft 277 kts 175°
2026-05-08 07:57 -33.91238 151.17638 16962 ft 275 kts 175°
2026-05-08 07:57 -33.93103 151.17952 16333 ft 271 kts 182°
2026-05-08 07:58 -33.94942 151.17705 15721 ft 264 kts 198°
2026-05-08 07:58 -33.96619 151.16855 15122 ft 261 kts 208°
2026-05-08 07:58 -33.98212 151.15832 14532 ft 259 kts 208°
2026-05-08 07:58 -33.99810 151.14826 13949 ft 258 kts 208°
2026-05-08 07:59 -34.01395 151.13822 13312 ft 257 kts 208°
2026-05-08 07:59 -34.02965 151.12825 12715 ft 254 kts 208°
2026-05-08 07:59 -34.04524 151.11838 12142 ft 252 kts 208°
2026-05-08 07:59 -34.06070 151.10857 11570 ft 250 kts 208°
2026-05-08 08:00 -34.07605 151.09882 10991 ft 249 kts 208°
2026-05-08 08:00 -34.09152 151.08901 10283 ft 254 kts 208°
2026-05-08 08:00 -34.10723 151.07901 9551 ft 257 kts 206°
2026-05-08 08:00 -34.12315 151.06891 8785 ft 259 kts 206°
2026-05-08 08:01 -34.13917 151.05874 8041 ft 260 kts 206°
2026-05-08 08:01 -34.15517 151.04857 7294 ft 260 kts 206°
2026-05-08 08:01 -34.17120 151.03836 6543 ft 260 kts 206°
2026-05-08 08:01 -34.18718 151.02821 5788 ft 259 kts 206°
2026-05-08 08:02 -34.20302 151.01811 5052 ft 257 kts 206°
2026-05-08 08:02 -34.21885 151.00803 4290 ft 258 kts 206°
2026-05-08 08:02 -34.23449 150.99810 3867 ft 247 kts 207°
2026-05-08 08:02 -34.24917 150.98871 3585 ft 232 kts 207°
2026-05-08 08:03 -34.26307 150.97985 3291 ft 220 kts 207°
2026-05-08 08:03 -34.27634 150.97139 3078 ft 212 kts 207°
2026-05-08 08:03 -34.28925 150.96316 3020 ft 211 kts 208°
2026-05-08 08:03 -34.30244 150.95473 3009 ft 215 kts 208°
2026-05-08 08:04 -34.31448 150.94704 3009 ft 212 kts 208°
2026-05-08 08:04 -34.32682 150.93914 3013 ft 215 kts 208°
2026-05-08 08:04 -34.33997 150.93075 3013 ft 212 kts 208°
2026-05-08 08:04 -34.35310 150.92235 3015 ft 214 kts 208°
2026-05-08 08:05 -34.36182 150.91678 3016 ft 213 kts 208°
2026-05-08 08:05 -34.37487 150.90843 3011 ft 213 kts 208°
2026-05-08 08:05 -34.39258 150.89710 3012 ft 215 kts 208°
2026-05-08 08:05 -34.40126 150.89154 3009 ft 211 kts 208°
2026-05-08 08:06 -34.41860 150.88045 3008 ft 214 kts 208°
2026-05-08 08:06 -34.42741 150.87480 3007 ft 211 kts 208°
2026-05-08 08:06 -34.44103 150.86606 3026 ft 231 kts 208°
2026-05-08 08:06 -34.45495 150.85714 3018 ft 222 kts 208°
2026-05-08 08:07 -34.46872 150.84832 3023 ft 224 kts 207°
2026-05-08 08:07 -34.48240 150.83953 2993 ft 223 kts 208°
2026-05-08 08:07 -34.49624 150.83070 3017 ft 224 kts 207°
2026-05-08 08:07 -34.51107 150.82481 3013 ft 226 kts 197°
2026-05-08 08:08 -34.52631 150.81987 3018 ft 227 kts 198°
2026-05-08 08:08 -34.54132 150.81452 3015 ft 223 kts 199°
2026-05-08 08:08 -34.55629 150.80904 3017 ft 225 kts 199°
2026-05-08 08:08 -34.57135 150.80360 3015 ft 226 kts 198°
2026-05-08 08:09 -34.58636 150.79819 3016 ft 223 kts 198°
2026-05-08 08:09 -34.60131 150.79282 3012 ft 225 kts 199°
2026-05-08 08:09 -34.61632 150.78743 3010 ft 224 kts 198°
2026-05-08 08:09 -34.63124 150.78206 3013 ft 228 kts 199°
2026-05-08 08:10 -34.64630 150.77663 3010 ft 228 kts 199°
2026-05-08 08:10 -34.66370 150.77029 3027 ft 275 kts 199°
2026-05-08 08:10 -34.68137 150.76401 3010 ft 261 kts 199°
2026-05-08 08:10 -34.69909 150.75761 3024 ft 276 kts 198°
2026-05-08 08:11 -34.71709 150.75112 3000 ft 262 kts 199°
2026-05-08 08:11 -34.73476 150.74470 3024 ft 269 kts 201°
2026-05-08 08:11 -34.75261 150.73828 3017 ft 270 kts 200°
2026-05-08 08:11 -34.77045 150.73187 3012 ft 256 kts 201°
2026-05-08 08:12 -34.78634 150.72538 3002 ft 225 kts 210°
2026-05-08 08:12 -34.79884 150.71446 3010 ft 225 kts 226°
2026-05-08 08:12 -34.80990 150.70126 3013 ft 218 kts 227°
2026-05-08 08:12 -34.82075 150.68853 2981 ft 223 kts 226°
2026-05-08 08:13 -34.83242 150.67478 2988 ft 243 kts 226°
2026-05-08 08:13 -34.84412 150.66092 2926 ft 220 kts 226°
2026-05-08 08:13 -34.85330 150.65030 2584 ft 144 kts 228°
2026-05-08 08:13 -34.85928 150.64339 2492 ft 102 kts 231°
2026-05-08 08:14 -34.86394 150.63772 2346 ft 101 kts 230°
2026-05-08 08:14 -34.87041 150.62910 2305 ft 171 kts 229°
2026-05-08 08:14 -34.87818 150.62003 2093 ft 155 kts 226°
2026-05-08 08:14 -34.88526 150.61193 1811 ft 126 kts 226°
2026-05-08 08:15 -34.89123 150.60511 1594 ft 116 kts 226°
2026-05-08 08:15 -34.89707 150.59840 1453 ft 114 kts 229°
2026-05-08 08:15 -34.90277 150.59145 1318 ft 118 kts 229°
2026-05-08 08:15 -34.90858 150.58441 1166 ft 118 kts 229°
2026-05-08 08:16 -34.91433 150.57739 1025 ft 116 kts 229°
2026-05-08 08:16 -34.92017 150.57052 852 ft 119 kts 227°
2026-05-08 08:16 -34.92640 150.56348 682 ft 125 kts 230°
2026-05-08 08:16 -34.93250 150.55604 490 ft 118 kts 228°
2026-05-08 08:17 -34.93788 150.54957 367 ft 100 kts 232°
2026-05-08 08:17 -34.94312 150.54325 578 ft 131 kts 229°
2026-05-08 08:17 -34.95108 150.53270 1097 ft 211 kts 231°
2026-05-08 08:17 -34.96012 150.51849 861 ft 206 kts 249°
2026-05-08 08:18 -34.95867 150.50349 1029 ft 172 kts 311°
2026-05-08 08:18 -34.94828 150.49850 900 ft 164 kts
2026-05-08 08:18 -34.93906 150.50517 592 ft 156 kts 36°
2026-05-08 08:18 -34.93872 150.50570 474 ft 0 kts 82°
2026-05-08 08:19 -34.93869 150.50583 1116 ft 0 kts 80°
2026-05-08 08:20 -34.93802 150.51879 1524 ft 271 kts 82°
2026-05-08 08:20 -34.92775 150.53785 1330 ft 283 kts 34°
2026-05-08 08:20 -34.91310 150.55246 1506 ft 262 kts 34°
2026-05-08 08:20 -34.89981 150.56596 1821 ft 229 kts 33°
2026-05-08 08:21 -34.88962 150.57859 2239 ft 198 kts 64°
2026-05-08 08:21 -34.89112 150.59385 1970 ft 180 kts 140°
2026-05-08 08:21 -34.90019 150.59643 1866 ft 123 kts 222°
2026-05-08 08:21 -34.90814 150.58706 1262 ft 183 kts 233°
2026-05-08 08:22 -34.91548 150.57636 960 ft 148 kts 236°
2026-05-08 08:22 -34.92256 150.56804 751 ft 137 kts 229°
2026-05-08 08:22 -34.92897 150.56008 598 ft 126 kts 231°
2026-05-08 08:22 -34.93482 150.55322 427 ft 105 kts 232°
2026-05-08 08:23 -34.93981 150.54714 384 ft 95 kts 230°
2026-05-08 08:23 -34.94377 150.54250 387 ft 57 kts 223°
2026-05-08 08:23 -34.94562 150.54034 393 ft 42 kts 225°
2026-05-08 08:23 -34.95013 150.53477 517 ft 129 kts 231°
2026-05-08 08:24 -34.95320 150.52583 1697 ft 127 kts 295°
2026-05-08 08:24 -34.94213 150.52543 2042 ft 238 kts 34°
2026-05-08 08:24 -34.92988 150.54157 1796 ft 262 kts 39°
2026-05-08 08:24 -34.91746 150.55670 1387 ft 230 kts 39°
2026-05-08 08:25 -34.90788 150.56890 1390 ft 172 kts 40°
2026-05-08 08:25 -34.90691 150.58172 1424 ft 165 kts 137°
2026-05-08 08:25 -34.91627 150.58239 1144 ft 130 kts 237°
2026-05-08 08:25 -34.91970 150.57254 823 ft 128 kts 237°
2026-05-08 08:26 -34.92606 150.56490 710 ft 128 kts 234°
2026-05-08 08:26 -34.93172 150.55701 499 ft 118 kts 235°
2026-05-08 08:26 -34.93720 150.55035 381 ft 107 kts 232°
2026-05-08 08:26 -34.94164 150.54493 384 ft 66 kts 222°
2026-05-08 08:27 -34.94396 150.54225 387 ft 41 kts 225°
2026-05-08 08:27 -34.94582 150.54000 393 ft 34 kts 222°